Location: Flotzheim
(48.8375°N, 10.8136°E)
Time: 16:33:53
(UTC+00:00)

H-2A R/B - Pass Details

Date: 23 January 2021
Orbit: 529 x 651 km, 98.3° (Epoch: 28 February)

Event Time Altitude Azimuth Distance (km) Brightness Sun altitude
Rises 16:55:11 0° 179° (S) 2,747 6.1 -9.1°
Reaches altitude 10° 16:57:20 10° 185° (S) 1,875 5.4 -9.4°
Maximum altitude 17:01:16 48° 260° (W) 780 3.6 -10.0°
Drops below altitude 10° 17:05:23 10° 335° (NNW) 1,964 5.2 -10.7°
Sets 17:07:41 0° 342° (NNW) 2,894 6.0 -11.0°
